Location: Key Biscayne
(25.6930°N, 80.1630°W)
Time: 18:09:18
(UTC-04:00)

Vanguard 2 - All Passes

Search period start: 22 April 2018 00:00
Search period end: 02 May 2018 00:00
Orbit: 553 x 2939 km, 32.9° (Epoch: 22 April)

Date Brightness Start Highest point End Pass type
(mag) Time Alt. Az. Time Alt. Az. Time Alt. Az.
22 Apr - 00:25:23 10° W 00:33:49 55° NNW 00:39:00 10° ENE visible
22 Apr - 02:37:56 10° WNW 02:43:02 36° N 02:46:54 10° ENE night (unlit)
22 Apr - 04:47:30 10° WNW 04:51:39 87° SSW 04:55:43 10° ESE visible
22 Apr - 06:57:26 10° WSW 06:59:47 14° SSW 07:02:26 10° S daylight
22 Apr - 18:14:22 10° SSE 18:19:49 12° SSE 18:24:43 10° SE daylight
22 Apr - 20:18:51 10° SSW 20:31:53 37° SSE 20:40:35 10° E visible
22 Apr - 22:30:24 10° WSW 22:42:30 83° SSE 22:49:28 10° ENE visible
23 Apr - 00:44:09 10° W 00:52:03 47° NNW 00:57:04 10° ENE visible
23 Apr - 02:56:16 10° WNW 03:01:20 42° N 03:05:13 10° E night (unlit)
23 Apr - 05:05:43 10° WNW 05:09:40 51° SSW 05:13:40 10° SE visible
23 Apr - 18:28:24 10° S 18:38:27 19° SSE 18:46:41 10° ESE daylight
23 Apr - 20:36:11 10° SW 20:50:15 48° SSE 20:59:08 10° E visible
23 Apr - 22:48:53 10° WSW 23:00:43 80° NNW 23:07:32 10° ENE visible
24 Apr - 01:02:54 10° WNW 01:10:22 43° N 01:15:11 10° ENE visible
24 Apr - 03:14:30 10° WNW 03:19:35 54° NNE 03:23:31 10° E night (unlit)
24 Apr - 05:24:08 10° W 05:27:39 29° SSW 05:31:15 10° SSE visible
24 Apr - 18:44:15 10° SSW 18:56:57 27° SSE 19:06:41 10° E daylight
24 Apr - 20:53:56 10° SW 21:08:34 62° SSE 21:17:28 10° ENE visible
24 Apr - 23:07:34 10° W 23:18:57 67° NNW 23:25:34 10° ENE visible
25 Apr - 01:21:34 10° WNW 01:28:43 43° N 01:33:23 10° ENE visible
25 Apr - 03:32:42 10° WNW 03:37:46 77° NNE 03:41:43 10° ESE night (unlit)
25 Apr - 05:43:04 10° WSW 05:45:37 16° SSW 05:48:14 10° S visible
25 Apr - 16:59:08 10° SSE 17:02:52 11° SE 17:06:26 10° SE daylight
25 Apr - 19:00:54 10° SSW 19:15:22 36° SSE 19:25:53 10° E daylight
25 Apr - 21:12:01 10° WSW 21:26:50 77° SSE 21:35:40 10° ENE visible
25 Apr - 23:26:23 10° W 23:37:14 58° NNW 23:43:37 10° ENE visible
26 Apr - 01:40:08 10° WNW 01:47:04 45° N 01:51:39 10° ENE visible
26 Apr - 03:50:56 10° WNW 03:55:49 68° SSW 03:59:44 10° ESE night (unlit)
26 Apr - 17:11:38 10° S 17:21:28 17° SE 17:30:12 10° ESE daylight
26 Apr - 19:18:03 10° SW 19:33:44 46° SSE 19:44:37 10° E daylight
26 Apr - 21:30:23 10° WSW 21:45:06 89° NNW 21:53:46 10° ENE visible
26 Apr - 23:45:15 10° W 23:55:34 52° N 00:01:44 10° ENE visible
27 Apr - 01:58:33 10° WNW 02:05:24 53° N 02:09:55 10° E night (unlit)
27 Apr - 04:09:18 10° W 04:13:46 40° SSW 04:17:29 10° SE night (unlit)
27 Apr - 17:27:04 10° S 17:39:54 25° SE 17:50:49 10° E daylight
27 Apr - 19:35:36 10° SW 19:52:03 58° SSE 20:03:05 10° ENE daylight
27 Apr - 21:49:01 10° WSW 22:03:24 76° NNW 22:11:51 10° ENE visible
28 Apr - 00:04:07 10° WNW 00:13:58 50° N 00:19:55 10° ENE visible
28 Apr - 02:16:54 10° WNW 02:23:40 68° NNE 02:28:08 10° E night (unlit)
28 Apr - 04:27:59 10° W 04:31:37 23° SW 04:34:49 10° SSE night (unlit)
28 Apr - 17:43:25 10° SSW 17:58:15 33° SE 18:10:23 10° E daylight
28 Apr - 19:53:30 10° SW 20:10:22 71° SSE 20:21:22 10° ENE visible
28 Apr - 22:07:49 10° W 22:21:44 67° NNW 22:29:57 10° ENE visible
29 Apr - 00:22:52 10° WNW 00:32:24 51° N 00:38:09 10° ENE visible
29 Apr - 02:35:13 10° WNW 02:41:49 87° SSW 02:46:12 10° ESE night (unlit)
29 Apr - 04:47:30 10° WSW 04:49:24 13° SW 04:51:12 10° SSW night (unlit)
29 Apr - 15:56:14 10° SSE 16:04:14 14° SE 16:11:59 10° ESE daylight
29 Apr - 18:00:21 10° SSW 18:16:33 43° SE 18:29:22 10° E daylight
29 Apr - 20:11:44 10° WSW 20:28:40 84° SSE 20:39:33 10° ENE visible
29 Apr - 22:26:45 10° W 22:40:09 60° NNW 22:48:05 10° ENE visible
30 Apr - 00:41:30 10° WNW 00:50:49 56° N 00:56:25 10° E visible
30 Apr - 02:53:35 10° WNW 02:59:49 57° SSW 03:04:05 10° SE night (unlit)
30 Apr - 16:10:49 10° S 16:22:34 22° SE 16:33:42 10° E daylight
30 Apr - 18:17:41 10° SW 18:34:49 54° SSE 18:48:00 10° ENE daylight
30 Apr - 20:30:13 10° WSW 20:47:01 84° NNW 20:57:42 10° ENE visible
30 Apr - 22:45:42 10° W 22:58:37 57° N 23:06:16 10° ENE visible
01 May - 01:00:01 10° WNW 01:09:11 66° NNE 01:14:39 10° E visible
01 May - 03:12:08 10° W 03:17:40 35° SW 03:21:41 10° SSE night (unlit)
01 May - 16:26:47 10° SSW 16:40:48 30° SE 16:53:50 10° E daylight
01 May - 18:35:24 10° SW 18:53:07 66° SSE 19:06:25 10° ENE daylight
01 May - 20:48:55 10° WSW 21:05:26 74° NNW 21:15:51 10° ENE visible
01 May - 23:04:36 10° WNW 23:17:08 57° N 23:24:32 10° ENE visible
